Preview of NWS' New Version of Forecast
This preview is not operational and should not be used for support decisions.

Regional Weather Roundup (RWR)

Issued by National Weather Service (NWS)

                            
000
ASUS46 KPQR 181610
RWROR 

OREGON REGIONAL WEATHER ROUNDUP
NATIONAL WEATHER SERVICE PORTLAND OR
900 AM PDT TUE JUN 18 2019

NOTE: "FAIR" INDICATES FEW OR NO CLOUDS BELOW 12,000 FEET WITH
NO SIGNIFICANT WEATHER AND/OR OBSTRUCTIONS TO VISIBILITY.

ORZ001>013-181700-
NORTHWEST OREGON

  
CITY           SKY/WX    TMP DP  RH WIND       PRES   REMARKS
ASTORIA        CLOUDY    57  50  77 NW9       30.28S                  
TILLAMOOK      CLOUDY    61  52  72 NW10      30.29S                  
NEWPORT        SUNNY     59  55  88 N8        30.30R                  
PORTLAND       PTSUNNY   63  52  67 N6        30.24S                  
VANCOUVER WA   CLOUDY    62  52  69 N5        30.24S                  
SCAPPOOSE      CLOUDY    62  52  69 W10       30.24R                  
HILLSBORO      PTSUNNY   64  50  60 N8        30.24S                  
AURORA         MOSUNNY   66  51  58 VRB5      30.25S                  
MCMINNVILLE    CLOUDY    63  54  72 CALM      30.24S                  
SALEM          CLOUDY    62  53  72 N9        30.24R                  
CORVALLIS      PTSUNNY   62  55  77 NW5       30.25R                  
EUGENE         MOSUNNY   65  55  70 N14       30.23S                  
$$

ORZ021-028-181700-
SOUTHWEST OREGON

  
CITY           SKY/WX    TMP DP  RH WIND       PRES   REMARKS
NORTH BEND     MOSUNNY   58  54  86 N10       30.25S                  
BROOKINGS      SUNNY     77  56  48 W6        30.08S                  
ROSEBURG       SUNNY     69  54  58 N10       30.19F                  
SEXTON SUMMIT  SUNNY     60  52  74 N7        30.23S                  
GRANTS PASS    FAIR      72  54  53 VRB5      30.17F                  
MEDFORD        SUNNY     68  49  50 CALM      30.16F                  
$$

ORZ014>016-041-181700-
COLUMBIA GORGE

  
CITY           SKY/WX    TMP DP  RH WIND       PRES   REMARKS
TROUTDALE      CLOUDY    65  52  62 NW6       30.23F                  
HOOD RIVER     MOSUNNY   64  52  63 NW15G26   30.13R                  
THE DALLES     SUNNY     68  53  58 NW22G29   30.09R                  
$$

ORZ029>031-041-044-049-050-061>064-502-503-505>511-181700-
EASTERN OREGON

  
CITY           SKY/WX    TMP DP  RH WIND       PRES   REMARKS
MADRAS         SUNNY     64  48  55 W8        30.16F                  
REDMOND        SUNNY     69  47  45 NW10      30.15F                  
BEND           SUNNY     68  46  45 W9        30.16S                  
PRINEVILLE     SUNNY     64  46  52 NW13      30.15F                  
KLAMATH FALLS  SUNNY     66  46  48 CALM      30.21F                  
LAKEVIEW       SUNNY     65  40  39 N10       30.23F                  
HERMISTON      SUNNY     73  52  47 W16       30.05R                  
PENDLETON      SUNNY     72  50  45 W12       30.06F                  
JOHN DAY       SUNNY     66  44  44 W7        30.16F                  
MEACHAM        SUNNY     63  46  54 VRB7      30.14S                  
LA GRANDE      SUNNY     69  46  43 NW12G18   30.10S                  
BAKER CITY     SUNNY     68  50  52 NW5       30.10F                  
BURNS          SUNNY     69  40  34 NW7       30.17S                  
ROME             N/A     74  38  27 NW7       30.13S                  
ONTARIO        SUNNY     79  46  31 NW12      30.04F                  
$$